Location: ???
(60.6398°N, 46.9067°E)
Time: 16:52:56
(UTC+00:00)

Cosmos 2219 Rocket - Pass Details

Date: 08 December 2019
Orbit: 826 x 848 km, 71.0° (Epoch: 21 January)

Event Time Altitude Azimuth Distance (km) Brightness Sun altitude
Rises 16:39:48 0° 253° (WSW) 3,383 6.1 -33.7°
Reaches altitude 10° 16:42:23 10° 260° (W) 2,454 5.3 -34.0°
Enters shadow 16:46:58 40° 311° (NW) 1,228 3.3 -34.6°
